[[{"header":{"parameterUnit":"m.s-1","parameterCategory":1,"la1":30.2991,"la2":30.254,"lo1":-89.0895,"lo2":-89.0444,"dy":0.0017,"dx":0.0017,"nx":28,"ny":28,"refTime":"2025-01-12T03:00:00:Z","depth":0,"parameterNumber":2,"parameterNumberName":"U-component_of_WINDS"},"data":[0,0,0,0,0,0,0,0,0,0,0,0,0,0,0,0,0,0,0,0,0,0,0,0,0,0,0,0,0,0,0,0,0,0,0,0,0,0,0,0,0,0,0,0,0,0,0,0,0,0,0,0,0,0,0,0,0,0,0.3394,0.3394,0,0.3354,0.3354,0.3354,0.3302,0.3301,0.33,0.33,0.3259,0.3259,0.3258,0,0,0,0,0,0,0,0,0,0,0,0,0,0.3425,0.3425,0.3394,0.3394,0.3393,0.3355,0.3354,0.3353,0.3302,0.3301,0.33,0.3299,0.3259,0.3259,0.3258,0,0,0,0,0,0,0,0,0,0,0,0,0,0.3401,0.3425,0.3395,0.3363,0.336,0.3355,0.3354,0.3353,0.3302,0.3301,0.33,0.3299,0.3259,0.3259,0.3258,0.328,0,0,0.3257,0.3257,0,0,0,0,0,0,0,0,0.3403,0.34,0.3368,0.3365,0.3362,0.3332,0.335,0.3329,0.3303,0.3324,0.33,0.3298,0.3284,0.3282,0.3277,0.3278,0.3277,0.3257,0.3256,0.3256,0.3256,0,0,0,0,0,0,0,0.3404,0.3401,0.3379,0.3368,0.3364,0.3351,0.3346,0.3346,0.3312,0.3322,0.3319,0.3314,0.3282,0.3277,0.3275,0.3276,0.3257,0.3256,0.3256,0.3256,0.3291,0.3292,0,0,0,0,0,0,0.3411,0.3403,0.338,0.3377,0.3379,0.3351,0.3346,0.3343,0.3312,0.3306,0.3316,0.3312,0.3279,0.3276,0.3274,0.3295,0.3256,0.3256,0.3256,0.329,0.3291,0.3292,0,0,0,0,0,0,0.3412,0.3409,0.3381,0.3389,0.3385,0.3352,0.3349,0.3343,0.3338,0.3307,0.33,0.3317,0.3278,0.3275,0.3278,0.3293,0.3256,0.3255,0.3288,0.329,0.3292,0.334,0,0,0,0,0,0,0.3413,0.341,0.3418,0.339,0.3384,0.3387,0.335,0.3343,0.3337,0.3332,0.3306,0.3301,0.3276,0.3279,0.3278,0.3292,0.3255,0.3287,0.3289,0.3291,0.3337,0.3344,0.3349,0,0,0,0,0,0.3414,0.3434,0.3419,0.3416,0.3394,0.3388,0.3385,0.3357,0.3339,0.3346,0.3326,0.3301,0.3292,0.328,0.3278,0.3292,0.3286,0.3288,0.3291,0.3335,0.3342,0.3349,0,0,0,0,0,0,0.3466,0.343,0.3413,0.3424,0.341,0.338,0.3389,0.3367,0.3357,0.3353,0.3318,0.3313,0.332,0.3307,0.3294,0.3311,0.3285,0.3288,0.3319,0.3326,0.3332,0.3334,0.3254,0,0,0,0,0,0.3478,0.3477,0.3445,0.3459,0.3452,0.3422,0.3418,0.3398,0.3381,0.3375,0.3354,0.3339,0.3332,0.3329,0.3321,0.3336,0.3328,0.3344,0.335,0.3355,0.3357,0.3361,0.3367,0.3301,0.3301,0.3301,0,0,0.3505,0.3485,0.3486,0.3468,0.3455,0.3453,0.3417,0.3417,0.3415,0.3375,0.3376,0.3361,0.3342,0.335,0.3353,0.3339,0.3374,0.3359,0.3363,0.3362,0.3365,0.3371,0.3376,0.3303,0.3303,0.3303,0,0,0.3551,0.3537,0.3545,0.3532,0.3511,0.349,0.3492,0.3465,0.3453,0.3455,0.3424,0.3421,0.3411,0.3397,0.3389,0.3429,0.3405,0.3428,0.3458,0.3462,0.3467,0.3472,0.3484,0.3488,0.343,0.343,0.343,0,0.3586,0.3582,0.3552,0.3553,0.3546,0.3509,0.3516,0.3505,0.3483,0.3478,0.3463,0.3448,0.3433,0.3436,0.3446,0.3441,0.3441,0.343,0.3469,0.3473,0.3477,0.3488,0.3492,0.3433,0.3433,0.3432,0.3432,0,0.3625,0.3623,0.3632,0.3611,0.3604,0.3609,0.3579,0.3576,0.3556,0.3536,0.3537,0.3517,0.3503,0.3503,0.3484,0.3504,0.3495,0.3476,0.3449,0.3486,0.3496,0.35,0.3437,0.3436,0.3435,0.3434,0,0,0.3702,0.3664,0.3667,0.3656,0.363,0.3627,0.363,0.3616,0.3613,0.36,0.3599,0.3591,0.3572,0.3562,0.3541,0.3546,0.3575,0.3524,0.3523,0.3533,0.3592,0.3606,0.3612,0.356,0.3561,0.3561,0.3593,0,0.3742,0.3743,0.3716,0.3724,0.372,0.3685,0.3687,0.367,0.3652,0.3646,0.3626,0.362,0.3596,0.359,0.3592,0.3571,0.3586,0.3569,0.3558,0.3558,0.3562,0.3617,0.3632,0.3663,0.3597,0.3598,0.3598,0,0.3788,0.3776,0.3784,0.3756,0.3753,0.3755,0.3739,0.3734,0.3715,0.3701,0.369,0.3666,0.3665,0.3641,0.3638,0.3626,0.362,0.3609,0.3609,0.3606,0.3579,0.3613,0.3673,0.3677,0.3604,0.3604,0.3603,0,0.3841,0.3826,0.3828,0.3821,0.3789,0.379,0.3777,0.3756,0.3749,0.3735,0.373,0.3717,0.3709,0.3699,0.3671,0.3657,0.3671,0.3645,0.3658,0.3658,0.3661,0.3661,0.3719,0.3661,0.3661,0.3661,0.366,0,0.3886,0.3892,0.3851,0.3853,0.3857,0.3826,0.3831,0.3814,0.3796,0.3792,0.3762,0.3759,0.3723,0.3716,0.3695,0.3694,0.3691,0.3679,0.3673,0.3681,0.3682,0.3675,0.3671,0.3662,0.3662,0.3661,0.3661,0,0.3945,0.3919,0.3918,0.3888,0.388,0.3885,0.3858,0.3857,0.3837,0.3833,0.383,0.3798,0.3788,0.376,0.3743,0.3728,0.3733,0.3723,0.3739,0.3735,0.3749,0.3747,0.3802,0.3807,0.3749,0.3749,0.375,0,0.3975,0.3979,0.3948,0.3943,0.3931,0.3925,0.3917,0.3886,0.3879,0.3856,0.3857,0.3845,0.3833,0.3818,0.3793,0.3779,0.3767,0.3788,0.3765,0.3772,0.3765,0.3764,0.3763,0.3792,0.3793,0.3793,0.3794,0,0.4031,0.4017,0.4007,0.3992,0.3984,0.3971,0.3956,0.3954,0.3919,0.3913,0.3902,0.3892,0.3874,0.3861,0.3843,0.3829,0.3805,0.3802,0.3803,0.381,0.3819,0.3812,0.375,0.38,0.3799,0.3799,0.3799,0.3798,0.4074,0.4075,0.4053,0.4042,0.4028,0.4014,0.4012,0.3991,0.3981,0.3964,0.3946,0.3937,0.3915,0.3888,0.3875,0.3866,0.3854,0.3858,0.3858,0.3859,0.3861,0.3822,0.3863,0.3863,0.3863,0.3863,0.3863,0,0.4126,0.411,0.4101,0.4081,0.4072,0.4051,0.4033,0.4027,0.4019,0.4001,0.399,0.3976,0.3963,0.3937,0.3921,0.3919,0.3908,0.3916,0.3915,0.3911,0.3874,0.3873,0.3925,0.3925,0.3925,0.3925,0.3925,0.3925,0.4152,0.4151,0.4134,0.4125,0.4109,0.4099,0.409,0.4077,0.4062,0.4049,0.4038,0.4021,0.3999,0.3981,0.3968,0.396,0.3955,0.3966,0.3955,0.392,0.3914,0.3909,0.3907,0.3966,0.3966,0.3992,0.3992,0.3993]},{"header":{"parameterUnit":"m.s-1","parameterCategory":1,"la1":30.2991,"la2":30.254,"lo1":-89.0895,"lo2":-89.0444,"dy":0.0017,"dx":0.0017,"nx":28,"ny":28,"refTime":"2025-01-12T03:00:00:Z","depth":0,"parameterNumber":3,"parameterNumberName":"V-component_of_WINDS"},"data":[0,0,0,0,0,0,0,0,0,0,0,0,0,0,0,0,0,0,0,0,0,0,0,0,0,0,0,0,0,0,0,0,0,0,0,0,0,0,0,0,0,0,0,0,0,0,0,0,0,0,0,0,0,0,0,0,0,0,0.8757,0.8757,0,0.8723,0.8723,0.8722,0.87,0.8699,0.8699,0.8699,0.8663,0.8662,0.8661,0,0,0,0,0,0,0,0,0,0,0,0,0,0.88,0.8799,0.8757,0.8757,0.8756,0.8723,0.8723,0.8722,0.87,0.8699,0.8699,0.8699,0.8663,0.8662,0.8661,0,0,0,0,0,0,0,0,0,0,0,0,0,0.8775,0.8799,0.8757,0.8741,0.8739,0.8723,0.8723,0.8722,0.87,0.8699,0.8699,0.8699,0.8663,0.8662,0.8661,0.8658,0,0,0.8657,0.8657,0,0,0,0,0,0,0,0,0.8777,0.8774,0.8744,0.8742,0.874,0.8715,0.8724,0.8701,0.87,0.8715,0.8699,0.8699,0.868,0.8678,0.8672,0.8656,0.8655,0.8657,0.8656,0.8656,0.8655,0,0,0,0,0,0,0,0.8778,0.8775,0.8744,0.8744,0.8741,0.8735,0.8731,0.872,0.8699,0.8713,0.8712,0.8708,0.8679,0.8673,0.8671,0.8654,0.8657,0.8656,0.8655,0.8655,0.8631,0.8632,0,0,0,0,0,0,0.8783,0.8777,0.8745,0.8743,0.8758,0.8734,0.873,0.8724,0.8699,0.8695,0.8708,0.8707,0.8675,0.8672,0.8669,0.8663,0.8656,0.8655,0.8654,0.8631,0.8631,0.8632,0,0,0,0,0,0,0.8784,0.878,0.8746,0.8759,0.8754,0.8734,0.8727,0.8723,0.8717,0.8695,0.8691,0.8706,0.8675,0.8671,0.866,0.8661,0.8654,0.8653,0.8631,0.8631,0.8631,0.865,0,0,0,0,0,0,0.8785,0.8781,0.878,0.8759,0.8754,0.8739,0.8727,0.8723,0.8715,0.8713,0.8692,0.8688,0.8675,0.8662,0.8659,0.8659,0.8652,0.8631,0.8631,0.8631,0.8649,0.8651,0.8652,0,0,0,0,0,0.8787,0.8787,0.878,0.8777,0.8753,0.8739,0.8736,0.872,0.8715,0.8714,0.87,0.8689,0.8662,0.8662,0.8658,0.8657,0.8631,0.8631,0.8631,0.8649,0.8651,0.8652,0,0,0,0,0,0,0.8809,0.8784,0.8777,0.877,0.8757,0.8735,0.8733,0.8723,0.8711,0.8709,0.869,0.8685,0.8676,0.8666,0.8666,0.8652,0.8645,0.8644,0.8659,0.8661,0.8662,0.8665,0.8651,0,0,0,0,0,0.8813,0.8805,0.8783,0.878,0.8773,0.8754,0.8748,0.8737,0.8722,0.8716,0.8702,0.8687,0.8675,0.8667,0.8655,0.8648,0.8642,0.8645,0.8647,0.8648,0.8648,0.8641,0.8642,0.8632,0.8632,0.8632,0,0,0.8821,0.8807,0.8803,0.8784,0.8772,0.8763,0.875,0.8741,0.8733,0.8715,0.8704,0.8692,0.8674,0.8665,0.866,0.8656,0.8649,0.8648,0.865,0.8649,0.8641,0.8642,0.8643,0.8633,0.8633,0.8633,0,0,0.8832,0.882,0.8815,0.8804,0.8786,0.8773,0.8772,0.8752,0.8743,0.8732,0.8717,0.8707,0.8687,0.8674,0.8665,0.8668,0.8658,0.8665,0.8673,0.8666,0.8667,0.8667,0.8667,0.8667,0.8665,0.8665,0.8665,0,0.8844,0.883,0.8814,0.8806,0.8797,0.8779,0.8773,0.8762,0.8742,0.8735,0.8731,0.8704,0.8691,0.8677,0.8678,0.8672,0.8668,0.8667,0.8668,0.8669,0.8669,0.8668,0.8668,0.8666,0.8666,0.8666,0.8665,0,0.8846,0.8836,0.8834,0.8815,0.8805,0.8798,0.8779,0.8772,0.8761,0.8748,0.8735,0.8719,0.8702,0.8698,0.8688,0.8682,0.868,0.8672,0.8664,0.8671,0.867,0.867,0.8667,0.8667,0.8666,0.8666,0,0,0.887,0.884,0.884,0.883,0.8808,0.88,0.8791,0.8775,0.8768,0.8754,0.8745,0.8727,0.8719,0.8709,0.8697,0.8691,0.8692,0.8684,0.8683,0.8685,0.8683,0.8689,0.8689,0.8685,0.8685,0.8685,0.8684,0,0.8877,0.8861,0.8845,0.8834,0.8824,0.8806,0.8798,0.8783,0.877,0.8759,0.8744,0.8731,0.8723,0.8716,0.871,0.8694,0.8692,0.8694,0.8675,0.8675,0.868,0.8689,0.8695,0.8695,0.8684,0.8684,0.8684,0,0.8883,0.8869,0.8857,0.8835,0.883,0.8823,0.8806,0.8796,0.8778,0.8768,0.8756,0.8743,0.873,0.8724,0.8706,0.8707,0.8698,0.8689,0.8689,0.8686,0.868,0.8686,0.8695,0.8695,0.8683,0.8683,0.8683,0,0.89,0.8879,0.8868,0.8861,0.8835,0.883,0.8819,0.8801,0.8791,0.8775,0.8769,0.8752,0.8742,0.8729,0.871,0.8708,0.8693,0.8686,0.8684,0.8685,0.8682,0.8683,0.869,0.8678,0.8678,0.8678,0.8678,0,0.8909,0.8902,0.8876,0.887,0.8861,0.8841,0.8833,0.882,0.8803,0.8793,0.8776,0.8766,0.8743,0.873,0.8715,0.8701,0.8697,0.8689,0.8685,0.869,0.8691,0.8684,0.8683,0.8678,0.8678,0.8678,0.8678,0,0.8927,0.891,0.8897,0.8873,0.8867,0.8861,0.884,0.8832,0.8818,0.8805,0.88,0.8778,0.8761,0.8741,0.8718,0.8708,0.8695,0.869,0.8702,0.87,0.8699,0.8699,0.8701,0.87,0.8689,0.8689,0.8689,0,0.8934,0.8928,0.8903,0.8895,0.8885,0.8872,0.8862,0.8843,0.8833,0.881,0.8805,0.8787,0.8772,0.8746,0.8726,0.8708,0.8702,0.8704,0.8699,0.8704,0.87,0.8701,0.8699,0.8705,0.8705,0.8706,0.8706,0,0.8947,0.8938,0.8925,0.8908,0.8897,0.8883,0.8868,0.8862,0.8838,0.8828,0.8811,0.8799,0.8775,0.8757,0.8736,0.8723,0.871,0.8707,0.8706,0.8711,0.8718,0.8713,0.8705,0.8707,0.8707,0.8707,0.8707,0.8707,0.8959,0.8952,0.8933,0.8919,0.8905,0.8891,0.8882,0.8866,0.8852,0.8832,0.882,0.8803,0.8783,0.8753,0.874,0.8725,0.8721,0.8719,0.8718,0.8718,0.8719,0.872,0.8721,0.8721,0.8721,0.8721,0.8721,0,0.897,0.8957,0.8944,0.8923,0.8911,0.89,0.8882,0.8873,0.8858,0.8841,0.8826,0.8805,0.8787,0.8765,0.8745,0.8737,0.8731,0.8733,0.8733,0.8729,0.8725,0.8728,0.8738,0.8738,0.8738,0.8738,0.8738,0.8738,0.8975,0.8962,0.8951,0.8931,0.8918,0.8902,0.8892,0.8878,0.8864,0.8842,0.8827,0.8813,0.8793,0.8771,0.8753,0.8747,0.874,0.8743,0.8735,0.8732,0.873,0.8729,0.8731,0.8742,0.8742,0.8741,0.8741,0.8741]}]]